Date String (YYYY-MM-DD hh:mm:ss) UTC,Instrument flags,Ambient pressure (hPa),Sample flow (lpm),Bypass flow (lpm),Sample temperature (°C),Ambient temperature (°C),ASC tube jacket temperature (°C),LED temperature (°C),Box temperature (°C),Sample RH (%),Span deviation,Mass concentration (μg/m³),Mass concentration (μg/m³),Mass concentration (μg/m³)
DateTimeUTC,F1_M11,P_M11,Q1_M11,Q2_M11,T1_M11,T2_M11,T3_M11,T4_M11,T5_M11,U1_M11,ZSPAN_M11,X0_M11,X2_M11,X1_M11
2022-01-05 09:00:00,,0822.9,5.00,0.00,21.3,20.7,00.0,30.4,22.9,11.2,0000.0,0004.65,0001.53,0001.17
2022-01-05 09:01:00,,0822.9,5.00,0.00,21.3,21.0,00.0,30.4,23.0,11.2,0000.0,0004.60,0001.52,0001.17
2022-01-05 09:02:00,,0822.8,5.01,0.00,21.5,21.8,00.0,30.5,23.3,11.1,0000.0,0004.66,0001.55,0001.17
2022-01-05 09:03:00,,0822.8,5.00,0.00,21.6,22.7,00.0,30.5,23.6,11.0,0000.0,0004.79,0001.57,0001.17
2022-01-05 09:04:00,,0822.9,4.99,0.00,21.8,22.7,00.0,30.5,23.7,10.9,0000.0,0004.79,0001.56,0001.17
2022-01-05 09:05:00,,0822.8,5.01,0.00,21.8,22.5,00.0,30.6,23.7,10.9,0000.0,0004.53,0001.58,0001.17
2022-01-05 09:06:00,,0822.8,5.01,0.00,21.8,22.2,00.0,30.6,23.6,10.9,0000.0,0004.43,0001.58,0001.17
2022-01-05 09:07:00,,0822.8,4.99,0.00,21.8,21.9,00.0,30.6,23.5,10.9,0000.0,0004.20,0001.55,0001.17
2022-01-05 09:08:00,,0822.8,5.01,0.00,21.8,21.8,00.0,30.6,23.5,10.9,0000.0,0003.72,0001.52,0001.15
2022-01-05 09:09:00,,0822.8,4.99,0.00,21.8,21.6,00.0,30.6,23.5,10.8,0000.0,0002.51,0001.51,0001.15
2022-01-05 09:10:00,,0822.7,5.01,0.00,21.8,21.5,00.0,30.7,23.5,10.8,0000.0,0002.43,0001.50,0001.15
2022-01-05 09:11:00,,0822.6,4.99,0.00,21.8,21.4,00.0,30.7,23.4,10.9,0000.0,0002.40,0001.50,0001.15
2022-01-05 09:12:00,,0822.7,5.00,0.00,21.8,21.3,00.0,30.7,23.4,10.9,0000.0,0002.37,0001.49,0001.15
2022-01-05 09:13:00,,0822.6,5.00,0.00,21.7,21.3,00.0,30.7,23.4,10.9,0000.0,0002.32,0001.46,0001.15
2022-01-05 09:14:00,,0822.6,5.00,0.00,21.7,21.2,00.0,30.7,23.4,10.8,0000.0,0002.18,0001.43,0001.15
2022-01-05 09:15:00,,0822.6,5.01,0.00,21.7,21.2,00.0,30.7,23.4,10.8,0000.0,0002.15,0001.44,0001.16
2022-01-05 09:16:00,,0822.4,5.00,0.00,21.7,21.1,00.0,30.7,23.4,10.8,0000.0,0002.23,0001.45,0001.18
2022-01-05 09:17:00,,0822.4,5.00,0.00,21.7,21.1,00.0,30.6,23.3,10.8,0000.0,0002.45,0001.44,0001.19
2022-01-05 09:18:00,,0822.4,5.00,0.00,21.7,21.1,00.0,30.6,23.3,10.8,0000.0,0002.96,0001.44,0001.19
2022-01-05 09:19:00,,0822.5,5.01,0.00,21.7,21.0,00.0,30.6,23.3,10.8,0000.0,0002.97,0001.46,0001.20
2022-01-05 09:20:00,,0822.4,5.00,0.00,21.7,21.1,00.0,30.6,23.3,10.8,0000.0,0002.97,0001.48,0001.21
2022-01-05 09:21:00,,0822.3,5.00,0.00,21.8,21.8,00.0,30.7,23.5,10.8,0000.0,0003.04,0001.52,0001.23
2022-01-05 09:22:00,,0822.3,4.98,0.00,21.9,22.6,00.0,30.7,23.8,10.7,0000.0,0003.03,0001.52,0001.25
2022-01-05 09:23:00,,0822.3,5.01,0.00,22.0,22.9,00.0,30.8,24.0,10.7,0000.0,0003.03,0001.53,0001.26
2022-01-05 09:24:00,,0822.3,4.99,0.00,22.1,22.7,00.0,30.8,24.0,10.6,0000.0,0003.09,0001.56,0001.27
2022-01-05 09:25:00,,0822.4,5.00,0.00,22.1,22.4,00.0,30.8,23.9,10.5,0000.0,0003.23,0001.61,0001.28
2022-01-05 09:26:00,,0822.4,5.00,0.00,22.1,22.2,00.0,30.9,23.8,10.4,0000.0,0003.38,0001.64,0001.29
2022-01-05 09:27:00,,0822.3,4.99,0.00,22.1,22.0,00.0,30.9,23.8,10.4,0000.0,0003.29,0001.65,0001.30
2022-01-05 09:28:00,,0822.2,5.00,0.00,22.0,21.8,00.0,30.9,23.8,10.4,0000.0,0003.18,0001.67,0001.31
2022-01-05 09:29:00,,0822.2,5.00,0.00,22.0,21.7,00.0,30.9,23.7,10.4,0000.0,0002.57,0001.69,0001.32
2022-01-05 09:30:00,,0822.1,5.00,0.00,22.0,21.6,00.0,30.9,23.7,10.4,0000.0,0002.65,0001.70,0001.33
2022-01-05 09:31:00,,0822.2,4.99,0.00,22.0,21.5,00.0,30.9,23.7,10.4,0000.0,0002.82,0001.71,0001.33
2022-01-05 09:32:00,,0822.3,5.01,0.00,22.0,21.4,00.0,30.9,23.6,10.4,0000.0,0002.75,0001.67,0001.33
2022-01-05 09:33:00,,0822.4,5.00,0.00,22.0,21.4,00.0,30.9,23.6,10.4,0000.0,0002.79,0001.68,0001.33
2022-01-05 09:34:00,,0822.2,4.99,0.00,21.9,21.3,00.0,30.9,23.5,10.4,0000.0,0002.85,0001.70,0001.33
2022-01-05 09:35:00,,0822.0,5.02,0.00,21.9,21.2,00.0,30.9,23.5,10.5,0000.0,0002.97,0001.71,0001.35
2022-01-05 09:36:00,,0821.9,4.99,0.00,21.9,21.2,00.0,30.9,23.5,10.5,0000.0,0003.12,0001.71,0001.34
2022-01-05 09:37:00,,0821.8,5.01,0.00,21.8,21.1,00.0,30.9,23.4,10.5,0000.0,0003.77,0001.67,0001.35
2022-01-05 09:38:00,,0821.8,5.00,0.00,21.8,21.2,00.0,30.9,23.4,10.5,0000.0,0003.75,0001.66,0001.36
2022-01-05 09:39:00,,0821.8,4.99,0.00,21.9,21.8,00.0,30.9,23.7,10.5,0000.0,0003.82,0001.64,0001.37
2022-01-05 09:40:00,,0821.8,5.00,0.00,22.0,22.6,00.0,30.9,24.0,10.4,0000.0,0003.81,0001.63,0001.38
2022-01-05 09:41:00,,0821.8,5.01,0.00,22.2,22.9,00.0,31.0,24.1,10.4,0000.0,0003.77,0001.63,0001.39
2022-01-05 09:42:00,,0821.8,5.01,0.00,22.2,22.6,00.0,31.0,24.0,10.4,0000.0,0003.52,0001.62,0001.41
2022-01-05 09:43:00,,0821.8,4.99,0.00,22.1,22.3,00.0,31.0,23.9,10.5,0000.0,0003.64,0001.66,0001.44
2022-01-05 09:44:00,,0821.8,5.01,0.00,22.1,22.0,00.0,31.0,23.7,10.6,0000.0,0003.84,0001.68,0001.45
2022-01-05 09:45:00,,0821.8,5.00,0.00,22.0,21.8,00.0,31.0,23.6,10.7,0000.0,0004.02,0001.72,0001.47
2022-01-05 09:46:00,,0821.8,5.01,0.00,22.0,21.5,00.0,31.0,23.5,10.8,0000.0,0003.94,0001.73,0001.50
2022-01-05 09:47:00,,0821.7,5.01,0.00,21.9,21.4,00.0,31.0,23.4,10.8,0000.0,0003.73,0001.73,0001.51
2022-01-05 09:48:00,,0821.7,5.00,0.00,21.9,21.3,00.0,31.0,23.5,10.8,0000.0,0002.94,0001.76,0001.53
2022-01-05 09:49:00,,0821.7,5.00,0.00,21.9,21.3,00.0,30.9,23.5,10.8,0000.0,0002.97,0001.78,0001.54
2022-01-05 09:50:00,,0821.7,5.00,0.00,21.9,21.2,00.0,30.9,23.5,10.8,0000.0,0002.88,0001.80,0001.54
2022-01-05 09:51:00,,0821.7,5.00,0.00,21.8,21.2,00.0,30.9,23.4,10.8,0000.0,0002.91,0001.81,0001.54
2022-01-05 09:52:00,,0821.8,5.00,0.00,21.8,21.1,00.0,30.9,23.4,10.8,0000.0,0003.14,0001.82,0001.54
2022-01-05 09:53:00,,0821.8,4.99,0.00,21.8,21.1,00.0,30.9,23.4,10.8,0000.0,0003.15,0001.82,0001.53
2022-01-05 09:54:00,,0821.8,5.01,0.00,21.8,21.2,00.0,30.9,23.4,10.8,0000.0,0003.04,0001.79,0001.51
2022-01-05 09:55:00,,0821.7,4.99,0.00,21.9,21.8,00.0,30.9,23.6,10.7,0000.0,0002.82,0001.77,0001.50
2022-01-05 09:56:00,,0821.7,4.99,0.00,22.0,22.6,00.0,30.9,23.9,10.7,0000.0,0002.64,0001.76,0001.49
2022-01-05 09:57:00,,0821.7,5.00,0.00,22.1,23.0,00.0,31.0,24.1,10.6,0000.0,0002.63,0001.77,0001.48
2022-01-05 09:58:00,,0821.6,5.00,0.00,22.2,22.7,00.0,31.0,24.1,10.6,0000.0,0002.57,0001.76,0001.48
2022-01-05 09:59:00,,0821.5,4.99,0.00,22.2,22.5,00.0,31.0,24.0,10.7,0000.0,0002.67,0001.82,0001.48
